TimePST,TemperatureF,Dew PointF,Humidity,Sea Level PressureIn,VisibilityMPH,Wind Direction,Wind SpeedMPH,Gust SpeedMPH,PrecipitationIn,Events,Conditions,WindDirDegrees,DateUTC
12:51 AM,57.9,54.0,87,29.98,2.5,Calm,Calm,-,N/A,,Overcast,0,2012-12-09 08:51:00
1:42 AM,57.2,53.6,88,29.99,3.0,Calm,Calm,-,N/A,,Overcast,0,2012-12-09 09:42:00
1:51 AM,57.9,53.1,84,29.99,3.0,ENE,3.5,-,N/A,,Haze,70,2012-12-09 09:51:00
3:51 AM,57.9,53.1,84,29.99,3.0,Calm,Calm,-,N/A,,Haze,0,2012-12-09 11:51:00
4:51 AM,57.9,53.1,84,29.99,3.0,Calm,Calm,-,N/A,,Haze,0,2012-12-09 12:51:00
5:51 AM,57.9,53.1,84,30.02,3.0,Calm,Calm,-,N/A,,Haze,0,2012-12-09 13:51:00
6:51 AM,57.0,52.0,83,30.03,3.0,NNE,3.5,-,N/A,,Haze,30,2012-12-09 14:51:00
7:14 AM,57.2,51.8,82,30.03,2.0,NE,3.5,-,N/A,,Haze,40,2012-12-09 15:14:00
7:51 AM,57.9,52.0,81,30.04,2.0,Calm,Calm,-,N/A,,Haze,0,2012-12-09 15:51:00
8:51 AM,57.9,51.1,78,30.05,2.5,NE,3.5,-,N/A,,Haze,50,2012-12-09 16:51:00
9:49 AM,60.8,51.8,72,30.07,3.0,Calm,Calm,-,N/A,,Haze,0,2012-12-09 17:49:00
9:51 AM,60.1,51.1,72,30.07,3.0,Calm,Calm,-,N/A,,Haze,0,2012-12-09 17:51:00
10:51 AM,64.0,52.0,65,30.06,3.0,Calm,Calm,-,N/A,,Haze,0,2012-12-09 18:51:00
11:38 AM,62.6,51.8,68,30.04,2.5,Variable,4.6,-,N/A,,Haze,0,2012-12-09 19:38:00
11:51 AM,63.0,52.0,67,30.04,3.0,SW,5.8,-,N/A,,Haze,230,2012-12-09 19:51:00
1:51 PM,63.0,52.0,67,30.01,3.0,Variable,3.5,-,N/A,,Haze,0,2012-12-09 21:51:00
2:51 PM,62.1,53.1,72,30.01,3.0,WSW,5.8,-,N/A,,Haze,250,2012-12-09 22:51:00
3:51 PM,61.0,53.1,75,30.02,3.0,SW,4.6,-,N/A,,Haze,230,2012-12-09 23:51:00
4:51 PM,60.1,54.0,80,30.05,3.0,Calm,Calm,-,N/A,,Haze,0,2012-12-10 00:51:00
5:51 PM,59.0,53.1,81,30.06,4.0,Calm,Calm,-,N/A,,Haze,0,2012-12-10 01:51:00
6:51 PM,57.0,54.0,89,30.07,2.5,Calm,Calm,-,N/A,,Clear,0,2012-12-10 02:51:00
7:01 PM,57.2,53.6,88,30.08,3.0,Calm,Calm,-,N/A,,Clear,0,2012-12-10 03:01:00
7:51 PM,57.0,53.1,87,30.09,3.0,Calm,Calm,-,N/A,,Clear,0,2012-12-10 03:51:00
9:51 PM,54.0,50.0,86,30.12,4.0,Calm,Calm,-,N/A,,Clear,0,2012-12-10 05:51:00
10:51 PM,53.1,48.9,86,30.12,4.0,Calm,Calm,-,N/A,,Clear,0,2012-12-10 06:51:00
11:51 PM,52.0,48.0,86,30.13,5.0,Calm,Calm,-,N/A,,Clear,0,2012-12-10 07:51:00